This demonstration page uses our WeatherBlox Daily Observations layout. Learn more.

39.01783, -85.05884

Hourly Observations for November 22, 2020

Temp ( °F °C ) Dew Point ( °F °C ) Humidity (%) Winds ( mph kmh ) Pressure ( in mb ) Visibility ( mi km ) Precip ( " mm )
12:52 am 00:52 Cloudy 47 8.3 42 5.6 83 83 NE 12 19 30.27 1025 7 11.26538 0.001 0.001
1:52 am 01:52 Cloudy 47 8.3 42 5.6 83 83 E 10 17 30.24 1024 8 12.87472 0 0
2:52 am 02:52 Cloudy 47 8.3 42 5.6 83 83 E 8 13 30.22 1023 8 12.87472 0 0
3:52 am 03:52 Cloudy 46 7.8 42 5.6 86 86 ENE 10 17 30.18 1022 8 12.87472 0 0
4:52 am 04:52 Cloudy 46 7.8 42 5.6 86 86 E 8 13 30.17 1022 7 11.26538 0 0
5:52 am 05:52 Cloudy with Mist and Fog 46 7.8 43 6.1 89 89 ENE 9 15 30.16 1022 5 8.0467 0 0
6:33 am 06:33 Cloudy with Mist and Fog 46 7.8 43 6.1 89 89 ENE 10 17 30.17 1022 2 3.21868 0 0
6:52 am 06:52 Cloudy with Mist and Fog 46 7.8 44 6.7 93 93 E 9 15 30.14 1021 2 3.21868 0 0
7:12 am 07:12 Cloudy with Mist and Fog 46 7.8 44 6.7 93 93 E 8 13 30.15 1021 1.25 2.011675 0 0
7:52 am 07:52 Cloudy with Mist and Fog 46 7.8 44 6.7 93 93 ENE 8 13 30.11 1020 0.75 1.207005 0 0
8:52 am 08:52 Cloudy with Fog 46 7.8 44 6.7 93 93 E 9 15 30.1 1019 0.5 0.80467 0 0
9:52 am 09:52 Mostly Cloudy with Rain 47 8.3 45 7.2 93 93 E 8 13 30.07 1018 0.5 0.80467 0.03 0.762
10:09 am 10:09 Cloudy with Light Rain 47 8.3 45 7.2 93 93 E 9 15 30.07 1018 1 1.60934 0.03 0.762
10:43 am 10:43 Cloudy with Light Rain 48 8.9 47 8.3 96 96 SE 10 17 30.04 1017 2.5 4.02335 0.06 1.524
10:52 am 10:52 Cloudy with Light Rain 49 9.4 47 8.3 93 93 ESE 9 15 30.02 1017 2.5 4.02335 0.07 1.778
11:17 am 11:17 Cloudy with Light Rain 50 10 48 8.9 93 93 SSE 8 13 30.03 1017 2.5 4.02335 0.02 0.508
11:52 am 11:52 Cloudy with Light Rain 52 11.1 50 10 93 93 S 10 17 29.99 1016 2 3.21868 0.05 1.27
12:52 pm 12:52 Cloudy with Mist and Fog 54 12.2 51 10.6 90 90 SSW 13 20 29.96 1014 3 4.82802 0.04 1.016
1:18 pm 13:18 Cloudy with Light Rain 54 12.2 52 11.1 93 93 SW 9 15 29.96 1015 1.5 2.41401 0.001 0.001
1:52 pm 13:52 Cloudy with Light Rain 54 12.2 52 11.1 93 93 SW 14 22 29.95 1014 3 4.82802 0.02 0.508
2:33 pm 14:33 Cloudy with Light Rain 54 12.2 52 11.1 93 93 WSW 10 17 29.96 1015 2.5 4.02335 0.001 0.001
2:40 pm 14:40 Cloudy with Light Rain 54 12.2 52 11.1 93 93 WSW 10 17 29.96 1015 3 4.82802 0.001 0.001
2:52 pm 14:52 Cloudy with Light Rain 54 12.2 52 11.1 93 93 WSW 12 19 29.96 1015 3 4.82802 0.001 0.001
3:29 pm 15:29 Cloudy with Light Rain 50 10 47 8.3 89 89 W 21 33 30 1016 3 4.82802 0.01 0.254
3:43 pm 15:43 Cloudy with Mist and Fog 49 9.4 46 7.8 90 90 W 16 26 30.01 1016 3 4.82802 0.01 0.254
3:52 pm 15:52 Cloudy with Mist and Fog 48 8.9 45 7.2 89 89 W 21 33 30.01 1016 3 4.82802 0.01 0.254
4:52 pm 16:52 Cloudy 43 6.1 39 3.9 86 86 WNW 17 28 30.06 1018 3 4.82802 0 0
5:52 pm 17:52 Cloudy 41 5 38 3.3 89 89 NW 14 22 30.09 1019 10 16.0934 0 0
6:34 pm 18:34 Cloudy 40 4.4 37 2.8 89 89 NW 16 26 30.15 1021 7 11.26538 0 0
6:52 pm 18:52 Cloudy 40 4.4 38 3.3 93 93 WNW 14 22 30.13 1020 7 11.26538 0.001 0.001
7:07 pm 19:07 Cloudy with Light Rain 40 4.4 37 2.8 89 89 WNW 14 22 30.17 1022 6 9.65604 0.001 0.001
7:49 pm 19:49 Cloudy 39 4 36 2 87 87 NW 16 26 30.2 1023 10 16.0934 0.001 0.001
7:52 pm 19:52 Cloudy 39 3.9 35 1.7 86 86 NW 17 28 30.18 1022 10 16.0934 0.001 0.001
8:25 pm 20:25 Cloudy 39 3.9 35 1.7 86 86 NW 13 20 30.19 1022 10 16.0934 0 0
8:52 pm 20:52 Cloudy 39 3.9 34 1.1 82 82 NW 14 22 30.19 1022 10 16.0934 0 0
9:25 pm 21:25 Cloudy 38 3.3 34 1.1 86 86 NW 12 19 30.22 1024 10 16.0934 0 0
9:52 pm 21:52 Cloudy 39 3.9 34 1.1 82 82 WNW 10 17 30.21 1023 10 16.0934 0 0
10:52 pm 22:52 Cloudy 39 3.9 34 1.1 82 82 NW 12 19 30.24 1024 10 16.0934 0 0
11:28 pm 23:28 Cloudy 39 3.9 34 1.1 82 82 NW 10 17 30.26 1025 10 16.0934 0 0
11:52 pm 23:52 Cloudy 39 3.9 34 1.1 82 82 WNW 8 13 30.24 1024 10 16.0934 0 0

Powered by AerisWeather